THURAYA-3 (32404 NORAD) Tracking and Keplerian Element Data

This shows tracking and keplerian element data for the satellite.

Feedback or suggestion? Click here.




ElementValue
Catalog32404
NameTHURAYA-3
Epoch Orbit3977
Epoch Day322.81775397
Epoch Year2018
RAAN0.2924
Inclination3.8596
Eccentricity0.0005107
Argument of Perigee228.0294
Mean Anonmoly222.4045
Mean Motion1.00271796
Decay Rate-2.94E-06
L11 32404U 08001A 18322.81775397 -.00000294 00000-0 00000-0 0 9991
L22 32404 3.8596 0.2924 0005107 228.0294 222.4045 1.00271796 39771

Live tracking and technical data element details for THURAYA-3 (NORAD 32404). THURAYA-3 can be tracked NOW for your location showing map with azimuth and elevation plus other details from your city location.

Track the satellite on the map from your city or location and see movement details for azimuth, elevation, latitude, longitude, range, height, and movement on the map or in text.







IsCatalogInMostPopularTable: catalog: 32404, numindb: 288
Update: records affected: 1



GetName: 32404 THURAYA-3

Hit Count: updated at: Mon, 19 Nov 2018 14:30:17 GMT